1485727200.95,55486,12.25,73778.5,-6.43,-37.39,-37.57,0,*53
1485727202.19,55487,12.25,73776.3,-6.43,-37.27,-37.63,0,*5A
1485727203.42,55488,12.25,73776.5,-6.43,-37.21,-37.27,0,*53
1485727204.68,55489,12.25,73778.0,-6.43,-37.09,-37.21,0,*5E
1485727205.88,55490,12.25,73776.8,-6.43,-37.27,-37.45,0,*58
1485727207.08,55491,12.25,73776.8,-6.43,-37.27,-37.45,0,*59
1485727208.3,55492,12.25,73782.5,-6.43,-37.45,-37.69,0,*50
1485727209.59,55493,12.25,73782.8,-6.41,-37.63,-37.81,0,*51
1485727210.88,55494,12.25,73782.3,-6.41,-37.81,-37.93,0,*59
1485727212.13,55495,12.25,73782.8,-6.41,-37.75,-37.93,0,*53
1485727213.39,55496,12.25,73782.3,-6.41,-37.75,-37.99,0,*5A
1485727214.64,55497,12.25,73780.8,-6.41,-37.75,-37.93,0,*51
1485727215.92,55498,12.25,73782.0,-6.41,-37.93,-38.11,0,*53
1485727217.16,55499,12.25,73782.3,-6.45,-38.17,-38.35,0,*53
1485727218.45,55500,12.25,73782.5,-6.45,-37.81,-37.99,0,*5B
1485727219.69,55501,12.25,73780.0,-6.43,-37.81,-37.87,0,*53
1485727220.92,55502,12.25,73780.3,-6.43,-37.63,-37.87,0,*5C
1485727222.19,55503,12.25,73782.0,-6.43,-37.81,-37.99,0,*5E
1485727223.43,55504,12.25,73780.0,-6.43,-38.17,-38.23,0,*57
1485727224.63,55505,12.25,73778.3,-6.43,-38.17,-38.35,0,*51
1485727225.89,55506,12.25,73776.8,-6.45,-37.99,-38.05,0,*5E
1485727227.15,55507,12.25,73778.0,-6.45,-37.87,-37.99,0,*5A
1485727228.38,55508,12.25,73778.8,-6.43,-37.99,-38.17,0,*55
1485727229.64,55509,12.25,73782.5,-6.45,-38.05,-38.23,0,*5F
1485727230.87,55510,12.25,73782.0,-6.45,-38.17,-38.17,0,*53
1485727232.16,55511,12.25,73778.5,-6.45,-37.69,-37.81,0,*54
1485727233.44,55512,12.25,73780.3,-6.45,-37.69,-37.81,0,*57
1485727234.73,55513,12.25,73778.5,-6.45,-37.81,-37.99,0,*59
1485727235.97,55514,12.25,73776.8,-6.45,-37.87,-38.17,0,*51
1485727237.23,55515,12.25,73780.0,-6.45,-38.05,-38.23,0,*52
1485727238.43,55516,12.25,73784.8,-6.43,-38.05,-38.17,0,*50
1485727239.67,55517,12.25,73780.0,-6.43,-37.87,-37.99,0,*5D
1485727240.9,55518,12.25,73778.8,-6.45,-37.57,-37.87,0,*56
1485727242.17,55519,12.25,73780.5,-6.45,-37.87,-37.99,0,*55
1485727243.43,55520,12.25,73780.0,-6.43,-37.69,-37.99,0,*59
1485727244.72,55521,12.25,73780.0,-6.45,-37.99,-37.99,0,*51
1485727245.95,55522,12.25,73782.3,-6.43,-37.99,-38.17,0,*5D
1485727247.2,55523,12.25,73780.5,-6.45,-37.99,-38.05,0,*59
1485727248.46,55524,12.25,73778.8,-6.45,-38.17,-38.23,0,*53
1485727249.69,55525,12.25,73780.5,-6.45,-38.43,-38.61,0,*55
1485727250.91,55526,12.25,73784.0,-6.45,-38.43,-38.73,0,*55
1485727252.17,55527,12.25,73780.0,-6.45,-38.55,-38.79,0,*59
1485727253.4,55528,12.25,73786.0,-6.45,-38.55,-38.73,0,*5C
1485727254.68,55529,12.25,73784.3,-6.45,-38.23,-38.23,0,*59
1485727255.92,55530,12.25,73782.8,-6.47,-38.05,-38.23,0,*57
1485727257.17,55531,12.25,73780.0,-6.51,-37.93,-38.11,0,*50
1485727258.38,55532,12.25,73782.0,-6.47,-38.05,-38.17,0,*52
1485727259.6,55533,12.25,73780.3,-6.45,-38.05,-38.05,0,*52
1485727260.83,55534,12.25,73780.3,-6.47,-37.99,-38.05,0,*5D
1485727262.1,55535,12.25,73782.8,-6.47,-37.81,-37.99,0,*5F
1485727263.36,55536,12.25,73780.5,-6.51,-37.93,-38.11,0,*57
1485727264.57,55537,12.25,73778.3,-6.51,-37.87,-38.17,0,*55
1485727265.78,55538,12.25,73784.0,-6.47,-38.05,-38.17,0,*58
1485727267.01,55539,12.25,73776.3,-6.47,-38.17,-38.29,0,*57
1485727268.25,55540,12.25,73780.5,-6.51,-38.29,-38.43,0,*5F
1485727269.46,55541,12.25,73780.0,-6.47,-38.17,-38.43,0,*54
1485727270.67,55542,12.25,73782.3,-6.47,-38.05,-38.17,0,*55
1485727271.91,55543,12.25,73782.3,-6.47,-37.87,-37.99,0,*58
1485727273.14,55544,12.25,73782.3,-6.51,-37.93,-38.05,0,*57
1485727274.37,55545,12.25,73780.0,-6.51,-37.93,-38.05,0,*56
1485727275.6,55546,12.25,73780.8,-6.51,-38.05,-38.11,0,*50
1485727276.86,55547,12.25,73782.0,-6.51,-38.23,-38.29,0,*5E
1485727278.1,55548,12.25,73782.0,-6.47,-37.99,-38.17,0,*55
1485727279.35,55549,12.25,73780.8,-6.51,-38.11,-38.23,0,*5B
1485727280.56,55550,12.25,73780.0,-6.51,-37.87,-38.05,0,*57
1485727281.8,55551,12.25,73782.0,-6.51,-37.69,-37.87,0,*53
1485727283.04,55552,12.19,73776.3,-6.51,-37.87,-38.11,0,*50
1485727284.25,55553,12.25,73780.3,-6.51,-37.87,-38.05,0,*54
1485727285.46,55554,12.25,73782.0,-6.51,-37.87,-38.05,0,*53
1485727286.66,55555,12.25,73782.8,-6.51,-37.75,-38.05,0,*5F
1485727287.9,55556,12.25,73780.5,-6.47,-37.81,-37.87,0,*55
1485727289.16,55557,12.25,73782.8,-6.51,-38.23,-38.23,0,*55
1485727290.4,55558,12.25,73780.0,-6.51,-38.05,-38.23,0,*5E
1485727291.66,55559,12.25,73780.5,-6.51,-37.93,-38.23,0,*5F
1485727292.89,55560,12.25,73782.0,-6.51,-38.11,-38.43,0,*56
1485727294.15,55561,12.25,73782.0,-6.51,-38.23,-38.29,0,*5A
1485727295.42,55562,12.25,73778.0,-6.51,-38.11,-38.23,0,*52
1485727296.65,55563,12.25,73776.0,-6.51,-38.23,-38.43,0,*54
1485727297.91,55564,12.25,73780.5,-6.51,-38.11,-38.23,0,*54
1485727299.16,55565,12.25,73778.8,-6.53,-38.11,-38.17,0,*50
1485727300.42,55566,12.25,73780.5,-6.53,-38.17,-38.29,0,*58
1485727301.7,55567,12.25,73776.0,-6.53,-38.11,-38.11,0,*54
1485727302.98,55568,12.25,73780.3,-6.53,-37.93,-38.11,0,*5E
1485727304.21,55569,12.25,73778.5,-6.51,-37.87,-38.11,0,*58
1485727305.5,55570,12.25,73780.0,-6.53,-38.11,-38.29,0,*59
1485727306.78,55571,12.25,73782.5,-6.53,-37.99,-38.11,0,*5C
1485727308.07,55572,12.25,73784.0,-6.53,-37.81,-37.99,0,*59
1485727309.33,55573,12.25,73776.3,-6.53,-38.35,-38.49,0,*5A
1485727310.59,55574,12.25,73776.5,-6.53,-38.17,-38.29,0,*5B
1485727311.87,55575,12.25,73780.0,-6.53,-37.99,-38.11,0,*58
1485727313.15,55576,12.25,73778.5,-6.53,-37.81,-38.11,0,*52
1485727314.41,55577,12.25,73780.3,-6.53,-37.75,-37.99,0,*57
1485727315.68,55578,12.25,73780.5,-6.55,-37.99,-37.99,0,*5C
1485727316.91,55579,12.25,73782.5,-6.55,-37.99,-38.17,0,*54
1485727318.12,55580,12.25,73778.0,-6.51,-37.87,-38.05,0,*5A
1485727319.38,55581,12.25,73780.5,-6.53,-37.99,-38.17,0,*55
1485727320.66,55582,12.25,73780.3,-6.53,-37.93,-38.11,0,*5A
1485727321.91,55583,12.25,73780.0,-6.53,-38.11,-38.17,0,*58
1485727323.15,55584,12.25,73780.0,-6.55,-38.17,-38.29,0,*52
1485727324.41,55585,12.25,73782.5,-6.55,-37.93,-38.11,0,*5B
1485727325.65,55586,12.25,73776.3,-6.53,-38.17,-38.35,0,*5B
1485727326.91,55587,12.25,73778.8,-6.53,-38.17,-38.49,0,*51
1485727328.17,55588,12.25,73776.3,-6.55,-38.29,-38.29,0,*53
1485727329.41,55589,12.25,73776.3,-6.55,-38.35,-38.49,0,*59
1485727330.67,55590,12.25,73776.8,-6.55,-38.11,-38.29,0,*51
1485727331.93,55591,12.25,73780.3,-6.55,-37.93,-38.11,0,*5E
1485727333.22,55592,12.25,73782.5,-6.53,-37.81,-37.99,0,*57
1485727334.5,55593,12.25,73780.0,-6.53,-37.93,-38.11,0,*5A
1485727335.76,55594,12.25,73782.5,-6.53,-37.99,-38.17,0,*51
1485727337.02,55595,12.25,73780.8,-6.55,-37.99,-38.11,0,*50
1485727338.27,55596,12.25,73778.3,-6.53,-38.11,-38.17,0,*5C
1485727339.51,55597,12.25,73782.8,-6.55,-37.99,-38.17,0,*54
1485727340.75,55598,12.25,73782.3,-6.57,-38.05,-38.17,0,*53
1485727342.01,55599,12.25,73780.8,-6.55,-37.99,-38.11,0,*5C
1485727343.26,55600,12.25,73782.0,-6.55,-37.93,-38.11,0,*55
1485727344.5,55601,12.25,73780.5,-6.55,-37.93,-38.17,0,*52
1485727345.76,55602,12.25,73778.8,-6.55,-37.93,-38.11,0,*57
1485727347.02,55603,12.25,73778.8,-6.55,-37.99,-38.11,0,*5C
1485727348.23,55604,12.25,73778.3,-6.55,-38.35,-38.55,0,*52
1485727349.44,55605,12.25,73782.0,-6.55,-38.17,-38.35,0,*55
1485727350.71,55606,12.25,73780.3,-6.55,-38.11,-38.29,0,*5D
1485727351.96,55607,12.25,73780.5,-6.53,-37.99,-38.17,0,*58
1485727353.23,55608,12.25,73778.5,-6.55,-38.11,-38.29,0,*53
1485727354.44,55609,12.25,73782.8,-6.55,-38.17,-38.35,0,*59
1485727355.7,55610,12.25,73784.3,-6.55,-37.99,-38.11,0,*5E
1485727356.99,55611,12.25,73782.3,-6.57,-37.99,-38.23,0,*5C
1485727358.26,55612,12.25,73782.3,-6.57,-37.99,-38.17,0,*58
1485727359.49,55613,12.25,73782.0,-6.57,-38.05,-38.17,0,*53
1485727360.76,55614,12.19,73778.0,-6.57,-38.05,-38.23,0,*53
1485727362.02,55615,12.25,73780.3,-6.57,-38.05,-38.23,0,*52
1485727363.24,55616,12.25,73780.3,-6.59,-37.87,-38.05,0,*5E
1485727364.5,55617,12.25,73780.3,-6.57,-37.99,-38.17,0,*5D
1485727365.74,55618,12.25,73778.5,-6.57,-37.87,-38.05,0,*5E
1485727367.01,55619,12.25,73782.0,-6.57,-37.81,-37.87,0,*5C
1485727368.27,55620,12.25,73780.8,-6.57,-37.99,-38.05,0,*5A
1485727369.53,55621,12.25,73780.8,-6.57,-37.99,-38.17,0,*58
1485727370.8,55622,12.25,73782.5,-6.57,-38.17,-38.23,0,*55
1485727372.04,55623,12.19,73776.0,-6.57,-38.05,-38.17,0,*50
1485727373.28,55624,12.25,73776.5,-6.57,-37.87,-38.05,0,*51
1485727374.51,55625,12.25,73778.8,-6.57,-38.05,-38.17,0,*56
1485727375.78,55626,12.25,73782.0,-6.57,-38.05,-38.23,0,*52
1485727376.99,55627,12.25,73780.5,-6.59,-38.17,-38.43,0,*58
1485727378.25,55628,12.19,73778.8,-6.57,-37.99,-38.17,0,*51
1485727379.52,55629,12.25,73780.5,-6.57,-37.81,-38.05,0,*5A
1485727380.76,55630,12.25,73780.5,-6.59,-37.81,-38.17,0,*5F
1485727382.03,55631,12.25,73780.0,-6.57,-37.99,-38.17,0,*59
1485727383.27,55632,12.25,73780.0,-6.59,-37.81,-38.05,0,*5E
1485727384.5,55633,12.19,73776.8,-6.57,-37.75,-38.05,0,*5A
1485727385.76,55634,12.25,73780.8,-6.57,-37.99,-38.05,0,*5F
1485727386.99,55635,12.25,73778.5,-6.57,-38.17,-38.17,0,*54
1485727388.2,55636,12.25,73782.0,-6.59,-38.17,-38.17,0,*59
1485727389.44,55637,12.25,73782.3,-6.59,-37.99,-38.05,0,*52
1485727390.67,55638,12.25,73780.0,-6.59,-37.99,-38.05,0,*5D
1485727391.88,55639,12.25,73782.8,-6.59,-38.05,-38.17,0,*55
1485727393.12,55640,12.25,73780.8,-6.57,-37.87,-38.05,0,*53
1485727394.36,55641,12.25,73782.0,-6.57,-37.75,-37.87,0,*5A
1485727395.64,55642,12.25,73780.8,-6.57,-37.81,-37.87,0,*52
1485727396.91,55643,12.25,73778.0,-6.57,-37.87,-37.99,0,*5A
1485727398.11,55644,12.25,73782.3,-6.59,-38.05,-38.05,0,*5C
1485727399.38,55645,12.25,73780.5,-6.57,-38.05,-38.23,0,*57
1485727400.63,55646,12.25,73780.8,-6.59,-37.87,-37.99,0,*51
1485727401.89,55647,12.25,73780.8,-6.55,-37.69,-37.93,0,*56
1485727403.15,55648,12.25,73782.0,-6.57,-37.75,-37.99,0,*5C
1485727404.42,55649,12.19,73776.3,-6.57,-37.87,-37.99,0,*50
1485727405.66,55650,12.25,73778.8,-6.59,-38.05,-38.23,0,*5D
1485727406.88,55651,12.25,73782.5,-6.59,-37.87,-38.17,0,*5E
1485727408.18,55652,12.25,73782.3,-6.57,-37.81,-37.99,0,*5C
1485727409.39,55653,12.25,73782.0,-6.59,-37.75,-37.87,0,*57
1485727410.63,55654,12.25,73782.5,-6.57,-37.75,-37.87,0,*5E
1485727411.92,55655,12.25,73780.8,-6.57,-37.63,-37.81,0,*5E
1485727413.19,55656,12.25,73782.5,-6.57,-37.63,-37.75,0,*56
1485727414.42,55657,12.19,73778.3,-6.59,-37.63,-37.75,0,*59
1485727415.72,55658,12.25,73780.5,-6.57,-37.63,-37.81,0,*53
1485727416.97,55659,12.25,73780.3,-6.55,-37.93,-38.11,0,*59
1485727418.21,55660,12.25,73782.0,-6.57,-38.05,-38.17,0,*57
1485727419.48,55661,12.25,73782.5,-6.57,-37.75,-37.99,0,*57
1485727420.74,55662,12.25,73782.3,-6.55,-37.69,-37.93,0,*51
1485727422.0,55663,12.25,73778.3,-6.57,-37.99,-38.05,0,*5D
1485727423.26,55664,12.25,73780.5,-6.57,-38.05,-38.23,0,*54
1485727424.53,55665,12.25,73778.5,-6.57,-37.87,-37.99,0,*5E
1485727425.8,55666,12.25,73780.5,-6.57,-37.63,-37.75,0,*55
1485727427.03,55667,12.25,73782.5,-6.57,-37.57,-37.75,0,*53
1485727428.27,55668,12.25,73780.8,-6.55,-37.69,-37.75,0,*53
1485727429.54,55669,12.25,73782.8,-6.55,-37.51,-37.81,0,*52
1485727430.77,55670,12.25,73780.5,-6.57,-37.87,-38.05,0,*50
1485727432.01,55671,12.25,73780.3,-6.57,-38.05,-38.17,0,*57
1485727433.28,55672,12.25,73782.0,-6.57,-38.05,-38.23,0,*53
1485727434.52,55673,12.25,73782.3,-6.57,-37.87,-38.17,0,*50
1485727435.82,55674,12.25,73778.8,-6.57,-37.81,-37.99,0,*58
1485727437.05,55675,12.25,73782.0,-6.57,-38.05,-38.17,0,*53
1485727438.32,55676,12.25,73780.5,-6.57,-37.81,-38.05,0,*50
1485727439.53,55677,12.25,73778.8,-6.59,-37.87,-38.17,0,*5A
1485727440.83,55678,12.25,73782.3,-6.57,-37.81,-37.99,0,*54
1485727442.07,55679,12.19,73778.3,-6.55,-37.75,-37.93,0,*56
1485727443.36,55680,12.25,73782.0,-6.57,-37.81,-37.81,0,*5A
1485727444.6,55681,12.25,73782.5,-6.57,-37.75,-37.87,0,*56
1485727445.87,55682,12.25,73776.3,-6.57,-37.57,-37.81,0,*53
1485727447.13,55683,12.25,73780.5,-6.55,-37.69,-37.93,0,*5E
1485727448.39,55684,12.25,73778.8,-6.55,-37.69,-37.81,0,*5A
1485727449.66,55685,12.19,73778.5,-6.55,-37.81,-37.93,0,*5E
1485727450.93,55686,12.25,73778.8,-6.55,-37.81,-37.93,0,*5D
1485727452.17,55687,12.25,73782.8,-6.57,-38.05,-38.17,0,*5E
1485727453.43,55688,12.25,73782.5,-6.57,-38.17,-38.23,0,*55
1485727454.7,55689,12.25,73782.3,-6.57,-38.17,-38.23,0,*54
1485727455.95,55690,12.25,73780.3,-6.57,-37.87,-37.87,0,*5B
1485727457.22,55691,12.25,73782.3,-6.55,-37.81,-37.99,0,*51
1485727458.47,55692,12.25,73780.8,-6.53,-38.11,-38.17,0,*5B
1485727459.71,55693,12.25,73780.8,-6.57,-38.05,-38.17,0,*5B
1485727460.97,55694,12.19,73776.0,-6.57,-38.17,-38.23,0,*58
1485727462.21,55695,12.25,73780.3,-6.57,-38.35,-38.43,0,*5F
1485727463.45,55696,12.25,73780.0,-6.57,-38.43,-38.61,0,*5D
1485727464.71,55697,12.19,73776.8,-6.57,-38.23,-38.43,0,*5A
1485727465.95,55698,12.25,73780.3,-6.57,-38.17,-38.17,0,*53
1485727467.19,55699,12.25,73776.5,-6.59,-38.05,-38.23,0,*58
1485727468.43,55700,12.25,73784.5,-6.59,-37.99,-38.17,0,*54
1485727469.67,55701,12.25,73780.3,-6.59,-38.17,-38.23,0,*5B
1485727470.88,55702,12.25,73782.5,-6.59,-38.05,-38.17,0,*5C
1485727472.12,55703,12.25,73782.8,-6.59,-37.99,-38.17,0,*57
1485727473.35,55704,12.25,73776.5,-6.59,-37.99,-38.17,0,*50
1485727474.56,55705,12.25,73778.0,-6.59,-37.87,-38.05,0,*5D
1485727475.83,55706,12.25,73780.3,-6.57,-38.17,-38.23,0,*52
1485727477.04,55707,12.25,73778.3,-6.59,-38.17,-38.17,0,*5A
1485727478.28,55708,12.25,73780.5,-6.59,-38.23,-38.35,0,*52
1485727479.49,55709,12.19,73776.3,-6.59,-38.17,-38.35,0,*54
1485727480.73,55710,12.25,73780.0,-6.59,-38.23,-38.17,0,*5B
1485727481.97,55711,12.25,73776.5,-6.59,-38.17,-38.23,0,*5A
1485727483.23,55712,12.25,73778.5,-6.61,-38.23,-38.23,0,*55
1485727484.44,55713,12.25,73776.8,-6.61,-38.43,-38.43,0,*54
1485727485.67,55714,12.25,73778.8,-6.61,-37.69,-37.87,0,*53
1485727486.93,55715,12.25,73776.8,-6.61,-37.63,-37.93,0,*5D
1485727488.17,55716,12.19,73776.3,-6.59,-37.63,-37.75,0,*5D
1485727489.38,55717,12.19,73776.3,-6.59,-37.57,-37.75,0,*5B
1485727490.64,55718,12.25,73782.8,-6.59,-37.63,-37.81,0,*58
1485727491.91,55719,12.25,73780.5,-6.59,-37.81,-37.99,0,*5C
1485727493.13,55720,12.25,73782.3,-6.59,-37.87,-38.05,0,*5A
1485727494.34,55721,12.25,73780.5,-6.59,-37.75,-37.87,0,*53
1485727495.58,55722,12.25,73782.0,-6.59,-37.63,-37.87,0,*57
1485727496.82,55723,12.25,73782.3,-6.57,-37.45,-37.75,0,*51
1485727498.09,55724,12.25,73780.8,-6.59,-37.63,-37.63,0,*5B
1485727499.35,55725,12.25,73782.5,-6.59,-37.63,-37.81,0,*56
1485727500.65,55726,12.25,73780.8,-6.57,-37.63,-37.63,0,*57
1485727501.91,55727,12.25,73780.5,-6.57,-37.75,-37.81,0,*5D
1485727503.15,55728,12.25,73782.5,-6.59,-37.57,-37.81,0,*5C
1485727504.37,55729,12.25,73782.3,-6.59,-37.75,-37.87,0,*5B
1485727505.63,55730,12.25,73780.0,-6.59,-37.99,-38.23,0,*50
1485727506.84,55731,12.25,73782.5,-6.59,-38.05,-38.17,0,*5C
1485727508.08,55732,12.25,73786.8,-6.59,-37.99,-38.17,0,*55
1485727509.29,55733,12.25,73782.5,-6.59,-37.87,-38.05,0,*58
1485727510.53,55734,12.25,73780.8,-6.59,-37.81,-38.05,0,*59
1485727511.74,55735,12.25,73780.0,-6.59,-37.75,-38.05,0,*53
1485727512.97,55736,12.19,73780.3,-6.59,-37.99,-38.17,0,*51
1485727514.21,55737,12.25,73782.0,-6.59,-37.99,-38.17,0,*50
1485727515.42,55738,12.19,73778.3,-6.59,-38.05,-38.17,0,*55
1485727516.69,55739,12.25,73780.3,-6.57,-37.87,-37.99,0,*56
1485727517.93,55740,12.25,73782.0,-6.59,-37.63,-37.87,0,*53
1485727519.18,55741,12.19,73776.0,-6.59,-37.87,-37.99,0,*57
1485727520.42,55742,12.25,73782.3,-6.59,-37.63,-37.75,0,*5C
1485727521.66,55743,12.19,73778.8,-6.59,-37.57,-37.81,0,*51
1485727522.87,55744,12.25,73778.8,-6.59,-37.87,-38.05,0,*58
1485727524.13,55745,12.25,73782.3,-6.57,-37.99,-38.05,0,*58
1485727525.34,55746,12.19,73778.5,-6.59,-38.17,-38.17,0,*5F
1485727526.58,55747,12.25,73780.3,-6.59,-38.05,-38.23,0,*5A
1485727527.82,55748,12.19,73778.5,-6.59,-38.23,-38.35,0,*56
1485727529.03,55749,12.19,73776.5,-6.59,-38.35,-38.55,0,*56
1485727530.27,55750,12.25,73782.5,-6.59,-38.17,-38.23,0,*5F
1485727531.48,55751,12.19,73780.3,-6.59,-38.05,-38.17,0,*5A
1485727532.72,55752,12.25,73780.8,-6.61,-38.43,-38.29,0,*5D
1485727533.95,55753,12.19,73778.3,-6.61,-38.43,-38.49,0,*5A
1485727535.18,55754,12.19,73778.5,-6.61,-38.29,-38.43,0,*5B
1485727536.42,55755,12.25,73782.5,-6.61,-38.43,-38.49,0,*5C
1485727537.68,55756,12.25,73782.3,-6.61,-38.11,-38.23,0,*54
1485727538.96,55757,12.25,73780.5,-6.63,-37.93,-38.11,0,*53
1485727540.22,55758,12.25,73780.0,-6.63,-37.87,-37.93,0,*5C
1485727541.45,55759,12.25,73780.0,-6.61,-37.93,-38.05,0,*5A
1485727542.68,55760,12.25,73782.3,-6.61,-38.05,-38.23,0,*54
1485727543.97,55761,12.25,73780.5,-6.63,-38.29,-38.49,0,*55
1485727545.26,55762,12.25,73780.8,-6.63,-38.29,-38.49,0,*56
1485727546.54,55763,12.25,73784.3,-6.63,-37.93,-38.11,0,*54
1485727547.81,55764,12.19,73776.0,-6.63,-37.81,-37.87,0,*50
1485727549.03,55765,12.19,73776.3,-6.61,-38.05,-38.11,0,*50
1485727550.27,55766,12.19,73778.3,-6.63,-37.87,-38.05,0,*51
1485727551.5,55767,12.19,73778.8,-6.61,-38.05,-38.11,0,*52
1485727552.75,55768,12.25,73780.3,-6.63,-38.23,-38.43,0,*5C
1485727554.01,55769,12.25,73780.0,-6.61,-38.11,-38.23,0,*58
1485727555.3,55770,12.25,73782.5,-6.63,-38.11,-38.29,0,*58
1485727556.58,55771,12.25,73782.8,-6.63,-37.93,-38.23,0,*56
1485727557.82,55772,12.19,73778.5,-6.65,-37.93,-38.17,0,*54
1485727559.08,55773,12.19,73778.3,-6.65,-37.93,-37.99,0,*5C
1485727560.34,55774,12.25,73782.5,-6.63,-37.81,-38.05,0,*54
1485727561.6,55775,12.25,73782.8,-6.63,-38.05,-38.23,0,*52
1485727562.89,55776,12.25,73780.8,-6.63,-38.23,-38.23,0,*55
1485727564.18,55777,12.25,73782.5,-6.63,-37.81,-37.93,0,*57
1485727565.42,55778,12.25,73780.3,-6.65,-37.75,-37.99,0,*5F
1485727566.65,55779,12.25,73780.0,-6.65,-37.93,-38.17,0,*5F
1485727567.88,55780,12.25,73780.8,-6.65,-38.11,-38.17,0,*5C
1485727569.12,55781,12.25,73784.5,-6.65,-38.17,-38.29,0,*56
1485727570.39,55782,12.25,73782.8,-6.65,-38.29,-38.29,0,*58
1485727571.65,55783,12.25,73780.5,-6.65,-38.29,-38.29,0,*59
1485727572.89,55784,12.25,73780.3,-6.65,-37.69,-37.87,0,*5E
1485727574.13,55785,12.19,73780.0,-6.65,-37.75,-37.99,0,*5D
1485727575.37,55786,12.19,73776.8,-6.65,-37.87,-38.11,0,*5C
1485727576.6,55787,12.19,73778.0,-6.65,-37.69,-37.75,0,*50
1485727577.89,55788,12.25,73776.8,-6.63,-37.69,-37.81,0,*52
1485727579.17,55789,12.25,73778.3,-6.63,-37.69,-37.93,0,*50
1485727580.46,55790,12.25,73782.0,-6.63,-37.69,-37.81,0,*5B
1485727581.74,55791,12.25,73780.8,-6.63,-37.51,-37.69,0,*57
1485727583.02,55792,12.25,73780.0,-6.63,-37.63,-37.69,0,*55
1485727584.3,55793,12.25,73780.5,-6.63,-37.63,-37.81,0,*52
1485727585.59,55794,12.25,73780.5,-6.63,-37.63,-37.81,0,*55
1485727586.84,55795,12.25,73780.3,-6.61,-37.93,-38.11,0,*5F
1485727588.13,55796,12.19,73778.5,-6.63,-38.11,-38.23,0,*5A
1485727589.41,55797,12.19,73776.8,-6.63,-38.11,-38.29,0,*51
1485727590.7,55798,12.25,73780.3,-6.63,-38.11,-38.29,0,*5E
1485727591.98,55799,12.25,73782.8,-6.63,-38.11,-38.23,0,*55
1485727593.22,55800,12.25,73782.8,-6.65,-38.17,-38.29,0,*50
1485727594.45,55801,12.25,73782.0,-6.65,-37.57,-37.69,0,*51
1485727595.68,55802,12.25,73780.8,-6.65,-37.57,-37.93,0,*57
1485727596.95,55803,12.25,73780.8,-6.65,-37.93,-37.99,0,*54
1485727598.21,55804,12.25,73780.8,-6.63,-38.05,-38.23,0,*5B
1485727599.45,55805,12.25,73778.8,-6.65,-38.05,-38.23,0,*5C
1485727600.7,55806,12.25,73782.3,-6.65,-37.93,-37.93,0,*5B
1485727601.94,55807,12.25,73780.8,-6.65,-37.75,-37.93,0,*52
1485727603.17,55808,12.25,73782.5,-6.65,-37.99,-38.17,0,*5C
1485727604.46,55809,12.19,73782.5,-6.63,-37.93,-38.23,0,*56
1485727605.75,55810,12.25,73786.0,-6.63,-37.81,-38.11,0,*5C
1485727607.01,55811,12.25,73782.3,-6.63,-38.05,-38.29,0,*55
1485727608.29,55812,12.25,73782.0,-6.63,-38.11,-38.29,0,*53
1485727609.56,55813,12.25,73784.5,-6.65,-38.29,-38.49,0,*59
1485727610.82,55814,12.19,73780.8,-6.65,-37.99,-38.29,0,*5C
1485727612.06,55815,12.19,73782.3,-6.65,-37.69,-37.75,0,*54
1485727613.27,55816,12.19,73780.3,-6.65,-37.75,-37.87,0,*57
1485727614.56,55817,12.25,73782.3,-6.63,-37.63,-37.81,0,*51
1485727615.82,55818,12.19,73778.3,-6.63,-37.69,-37.87,0,*52
1485727617.09,55819,12.25,73780.8,-6.63,-37.81,-37.87,0,*55
1485727618.32,55820,12.25,73780.3,-6.65,-37.75,-37.93,0,*57
1485727619.56,55821,12.25,73782.8,-6.65,-37.39,-37.57,0,*56
1485727620.79,55822,12.25,73786.8,-6.65,-37.75,-37.99,0,*5F
1485727622.05,55823,12.25,73782.0,-6.65,-38.11,-38.29,0,*57
1485727623.34,55824,12.25,73780.3,-6.63,-38.11,-38.23,0,*5C
1485727624.58,55825,12.25,73780.0,-6.65,-38.17,-38.49,0,*51
1485727625.81,55826,12.25,73782.3,-6.65,-38.11,-38.35,0,*5F
1485727627.05,55827,12.25,73780.5,-6.65,-37.87,-38.11,0,*58
1485727628.29,55828,12.19,73778.0,-6.65,-38.17,-38.29,0,*5A
1485727629.55,55829,12.25,73780.8,-6.65,-38.11,-38.29,0,*5D
1485727630.79,55830,12.19,73778.8,-6.65,-38.17,-38.29,0,*53
1485727632.05,55831,12.25,73784.5,-6.67,-37.99,-38.17,0,*54
1485727633.33,55832,12.25,73780.3,-6.67,-37.93,-38.11,0,*5B
1485727634.57,55833,12.19,73780.5,-6.65,-38.29,-38.35,0,*50
1485727635.83,55834,12.25,73786.0,-6.67,-37.99,-38.17,0,*51
1485727637.1,55835,12.19,73778.8,-6.65,-38.11,-38.29,0,*50
1485727638.32,55836,12.19,73780.0,-6.65,-37.57,-37.69,0,*55
1485727639.59,55837,12.25,73782.0,-6.65,-37.93,-37.99,0,*53
1485727640.87,55838,12.25,73782.5,-6.67,-37.93,-38.11,0,*51
1485727642.13,55839,12.19,73780.8,-6.65,-37.93,-38.11,0,*52
1485727643.39,55840,12.19,73782.0,-6.65,-38.11,-38.29,0,*52
1485727644.62,55841,12.25,73780.0,-6.65,-37.75,-38.11,0,*55
1485727645.86,55842,12.19,73780.3,-6.65,-37.87,-38.11,0,*5B
1485727647.1,55843,12.19,73782.5,-6.67,-38.17,-38.35,0,*58
1485727648.39,55844,12.25,73780.0,-6.67,-38.11,-38.29,0,*54
1485727649.62,55845,12.19,73780.3,-6.67,-37.57,-37.75,0,*5E
1485727650.86,55846,12.25,73782.5,-6.65,-37.69,-37.87,0,*5F
1485727652.09,55847,12.19,73780.5,-6.65,-37.75,-37.93,0,*56
1485727653.33,55848,12.25,73782.3,-6.65,-37.93,-38.17,0,*52
1485727654.61,55849,12.25,73782.0,-6.67,-37.99,-38.11,0,*5D
1485727655.85,55850,12.19,73782.5,-6.65,-37.69,-37.87,0,*58
1485727657.06,55851,12.19,73782.0,-6.65,-37.57,-37.75,0,*59
1485727658.34,55852,12.25,73782.5,-6.63,-37.69,-37.93,0,*59
1485727659.61,55853,12.19,73780.0,-6.65,-37.99,-38.29,0,*5F
1485727660.85,55854,12.25,73786.0,-6.65,-37.87,-37.99,0,*53
1485727662.11,55855,12.19,73782.3,-6.67,-37.57,-37.69,0,*52
1485727663.37,55856,12.19,73782.3,-6.65,-37.93,-38.29,0,*50
1485727664.66,55857,12.19,73780.8,-6.63,-37.69,-37.81,0,*5F
1485727665.94,55858,12.25,73780.3,-6.63,-37.93,-38.11,0,*53
1485727667.2,55859,12.19,73780.0,-6.63,-37.87,-38.11,0,*57
1485727668.43,55860,12.25,73782.8,-6.65,-37.57,-37.69,0,*56
1485727669.67,55861,12.19,73780.8,-6.65,-37.69,-37.75,0,*57
1485727670.93,55862,12.25,73782.5,-6.65,-37.93,-37.99,0,*53
1485727672.16,55863,12.19,73778.0,-6.65,-37.99,-38.17,0,*51
1485727673.42,55864,12.19,73776.8,-6.63,-37.45,-37.51,0,*5C
1485727674.69,55865,12.19,73776.5,-6.61,-37.51,-37.63,0,*5B
1485727675.92,55866,12.19,73778.5,-6.63,-37.27,-37.27,0,*5B
1485727677.2,55867,12.25,73780.8,-6.63,-37.51,-37.81,0,*57
1485727678.47,55868,12.25,73782.5,-6.63,-37.63,-37.87,0,*5F
1485727679.73,55869,12.19,73782.3,-6.63,-37.69,-37.87,0,*54
1485727680.99,55870,12.25,73784.5,-6.63,-38.05,-38.29,0,*52
1485727682.23,55871,12.19,73780.8,-6.65,-38.17,-38.29,0,*56
1485727683.52,55872,12.19,73780.3,-6.63,-37.81,-37.93,0,*5D
1485727684.79,55873,12.19,73780.8,-6.63,-37.81,-37.87,0,*59
1485727686.05,55874,12.19,73780.0,-6.61,-37.81,-37.93,0,*59
1485727687.33,55875,12.19,73778.0,-6.63,-37.93,-38.11,0,*5C
1485727688.59,55876,12.19,73780.8,-6.63,-37.87,-38.11,0,*5A
1485727689.79,55877,12.19,73778.8,-6.61,-38.05,-38.05,0,*59
1485727691.0,55878,12.19,73778.8,-6.61,-37.87,-38.05,0,*53
1485727692.23,55879,12.25,73782.3,-6.63,-38.05,-38.05,0,*55
1485727693.51,55880,12.25,73780.0,-6.63,-38.11,-38.29,0,*58
1485727694.77,55881,12.25,73782.3,-6.61,-37.93,-38.23,0,*54
1485727696.03,55882,12.19,73780.5,-6.63,-38.05,-38.11,0,*54
1485727697.32,55883,12.19,73780.8,-6.63,-37.93,-38.23,0,*54
1485727698.6,55884,12.19,73782.5,-6.63,-38.11,-38.29,0,*5C
1485727699.89,55885,12.19,73780.0,-6.63,-37.93,-38.23,0,*52